{"data":{"norad_id":55822,"epoch":"2026-09-20T00:56:15.340416Z","epoch_age_seconds":61703,"freshness":"FRESH","line1":"1 55822U 23029AC  26263.03906644 -.00000059  00000+0 -19286-3 0  9993","line2":"2 55822  87.8890 270.8219 0002408  85.7982 274.3423 13.14565191171893","mean_motion":13.14565191,"eccentricity":0.0002408,"inclination_deg":87.889,"raan_deg":270.8219,"arg_perigee_deg":85.7982,"mean_anomaly_deg":274.3423,"bstar":-0.00019286,"rev_number":17189,"period_min":109.54192381319,"perigee_km":1203.7242386836,"apogee_km":1207.3765425309,"semimajor_km":7583.6873906073,"source":"CELESTRAK","updated_at":"2026-09-20T09:00:44.764532Z"}}